K6NC Weather Reports


time (UTC)temp
F
wind
direction
speed
knots
gust
knots
rain 1hr
in
rain 24hr
in
rain mn
in
humidity
%
barometer
mb
20260505173513 58 0 2.6 6.1 0.00 0.25 0.04 87 1014.9
20260505173030 58 219 1.7 6.1 0.00 0.25 0.04 84 1014.9
20260505172516 58 237 2.6 5.2 0.00 0.25 0.04 86 1015.0
20260505172012 58 184 1.7 5.2 0.00 0.25 0.04 88 1015.0
20260505171530 57 236 2.6 6.1 0.00 0.25 0.04 89 1015.0
20260505171014 57 146 0.9 6.1 0.00 0.25 0.04 89 1014.9
20260505170514 57 180 2.6 5.2 0.00 0.25 0.04 90 1014.9
20260505170030 57 207 2.6 6.1 0.00 0.25 0.04 90 1015.0
20260505165512 56 209 2.6 6.1 0.00 0.25 0.04 91 1015.0
20260505165014 56 199 2.6 6.1 0.00 0.25 0.04 91 1015.0
20260505164541 56 198 4.3 6.1 0.00 0.25 0.04 92 1015.0
20260505164013 56 213 3.5 6.1 0.00 0.25 0.04 92 1015.0
20260505163513 55 216 3.5 5.2 0.00 0.25 0.04 93 1014.9
20260505163029 55 169 2.6 5.2 0.00 0.25 0.04 93 1015.0
20260505162511 55 159 1.7 5.2 0.00 0.25 0.04 93 1015.0
20260505162014 54 162 1.7 5.2 0.00 0.25 0.04 93 1015.0
20260505161528 54 207 1.7 5.2 0.00 0.25 0.04 93 1014.9
20260505161013 54 175 2.6 6.1 0.00 0.25 0.04 93 1014.9
20260505160514 54 171 2.6 6.1 0.00 0.25 0.04 93 1014.9
20260505153030 53 0 2.6 6.1 0.00 0.25 0.04 93 1014.7
20260505152512 53 142 1.7 5.2 0.00 0.25 0.04 93 1014.7
20260505152015 53 154 2.6 6.1 0.00 0.25 0.04 93 1014.7
20260505151529 53 0 0.9 6.1 0.00 0.25 0.04 94 1014.6
20260505151012 53 174 1.7 5.2 0.00 0.25 0.04 94 1014.6
20260505150513 53 163 0.9 5.2 0.00 0.25 0.04 94 1014.4
20260505140516 52 0 0.0 0.9 0.00 0.27 0.04 93 1014.1
20260505125014 52 0 0.9 3.5 0.00 0.27 0.04 93 1013.9
20260505124536 52 169 0.0 2.6 0.00 0.27 0.04 93 1013.8
20260505124013 52 165 0.0 1.7 0.00 0.27 0.04 93 1013.8
20260505123511 52 0 0.0 2.6 0.00 0.27 0.04 93 1013.8
20260505123030 52 0 0.0 3.5 0.00 0.27 0.04 93 1013.8
20260505122512 52 175 0.9 3.5 0.00 0.27 0.04 93 1013.7
20260505122017 52 179 0.9 3.5 0.00 0.27 0.04 93 1013.8
20260505121534 52 171 0.9 2.6 0.00 0.27 0.04 93 1013.8
20260505121015 52 180 0.0 3.5 0.00 0.27 0.04 93 1013.9
20260505120513 52 180 0.9 4.3 0.00 0.27 0.04 93 1013.9
20260505120034 52 150 0.9 4.3 0.00 0.27 0.04 93 1013.9
20260505115512 52 180 0.9 5.2 0.00 0.27 0.04 93 1014.0
20260505115013 52 173 1.7 5.2 0.00 0.27 0.04 93 1013.9
20260505114529 52 175 1.7 4.3 0.00 0.27 0.04 93 1013.9
20260505114016 52 170 0.9 4.3 0.00 0.27 0.04 93 1014.0
20260505113514 52 0 0.9 4.3 0.00 0.27 0.04 93 1013.9
20260505113032 52 0 0.9 4.3 0.00 0.27 0.04 93 1014.0
20260505112513 52 0 0.0 5.2 0.00 0.27 0.04 93 1014.0
20260505112013 52 166 0.9 6.1 0.00 0.27 0.04 93 1014.0
20260505111528 52 169 2.6 6.1 0.00 0.27 0.04 93 1013.9
20260505111015 52 186 2.6 6.1 0.00 0.27 0.04 93 1013.7
20260505110512 52 214 2.6 6.1 0.00 0.27 0.04 93 1013.7
20260505102011 52 0 0.0 2.6 0.01 0.27 0.04 92 1013.9
20260505101014 52 149 0.9 5.2 0.01 0.27 0.04 92 1013.9
20260505100513 52 176 2.6 5.2 0.01 0.27 0.04 92 1013.9
20260505100031 52 174 0.9 5.2 0.00 0.26 0.03 92 1014.0
20260505095512 52 0 0.0 5.2 0.00 0.26 0.03 92 1014.1
20260505095012 52 181 2.6 5.2 0.00 0.26 0.03 92 1014.0
20260505094533 52 165 0.9 5.2 0.00 0.26 0.03 92 1014.1
20260505094012 52 153 0.0 3.5 0.00 0.26 0.03 92 1014.1
20260505093512 52 0 0.0 4.3 0.00 0.26 0.03 92 1014.2
20260505093031 52 178 2.6 4.3 0.00 0.26 0.03 92 1014.1
20260505092517 52 178 1.7 4.3 0.00 0.26 0.03 92 1014.3
20260505092013 52 189 1.7 4.3 0.00 0.26 0.03 92 1014.3
20260505091530 53 237 2.6 5.2 0.00 0.26 0.03 92 1014.3
20260505091012 53 208 1.7 5.2 0.00 0.26 0.03 92 1014.4
20260505090513 53 220 2.6 5.2 0.00 0.26 0.03 92 1014.3
20260505090031 53 214 1.7 4.3 0.00 0.26 0.03 92 1014.4
20260505085513 53 212 2.6 4.3 0.00 0.26 0.03 92 1014.4
20260505085014 53 175 0.9 3.5 0.00 0.26 0.03 92 1014.5
20260505084543 53 206 1.7 3.5 0.00 0.26 0.03 92 1014.5
20260505084013 53 201 1.7 3.5 0.00 0.26 0.03 92 1014.6
20260505083514 53 211 1.7 3.5 0.01 0.26 0.03 92 1014.7
20260505083031 53 192 1.7 4.3 0.01 0.26 0.03 92 1014.7
20260505082513 53 205 2.6 4.3 0.02 0.26 0.03 92 1014.7
20260505082014 53 210 2.6 5.2 0.02 0.26 0.03 92 1014.7
20260505081532 53 207 2.6 5.2 0.02 0.26 0.03 92 1014.7
20260505081013 53 209 2.6 6.1 0.02 0.26 0.03 92 1014.6
20260505080513 53 206 2.6 6.1 0.03 0.26 0.03 92 1014.5
20260505080028 53 209 3.5 5.2 0.03 0.26 0.03 92 1014.6
20260505075513 53 220 1.7 3.5 0.04 0.26 0.03 92 1014.7
20260505075013 53 200 1.7 3.5 0.04 0.26 0.03 92 1014.7
20260505074528 53 206 2.6 3.5 0.04 0.26 0.03 92 1014.8
20260505074013 53 185 0.9 3.5 0.05 0.26 0.03 92 1014.9
20260505073512 53 180 0.0 1.7 0.04 0.25 0.02 92 1015.0
20260505073033 53 0 0.0 2.6 0.04 0.25 0.02 92 1015.0
20260505072513 53 0 0.0 2.6 0.03 0.24 0.01 92 1015.1
20260505072017 53 0 0.0 1.7 0.03 0.24 0.01 91 1015.1
20260505071531 53 0 0.0 1.7 0.03 0.24 0.01 92 1015.0
20260505071015 53 0 0.0 3.5 0.03 0.24 0.01 92 1014.9
20260505070517 53 0 1.7 3.5 0.02 0.23 0.00 91 1015.1
20260505070040 53 67 1.7 3.5 0.03 0.23 0.00 91 1015.0
20260505065517 53 97 0.0 1.7 0.03 0.22 0.22 91 1014.8
20260505065015 53 0 0.0 1.7 0.04 0.22 0.22 91 1014.6
20260505064530 53 144 0.0 1.7 0.05 0.22 0.22 91 1014.6
20260505064017 53 0 0.0 1.7 0.04 0.21 0.21 91 1014.9
20260505063513 53 0 0.0 1.7 0.04 0.21 0.21 91 1014.9
20260505063033 53 55 0.0 2.6 0.04 0.21 0.21 91 1014.8
20260505062513 53 0 0.9 2.6 0.04 0.21 0.21 91 1014.9
20260505062012 53 55 0.9 2.6 0.04 0.21 0.21 91 1014.9
20260505061532 53 0 0.0 2.6 0.04 0.21 0.21 91 1014.7
20260505061011 53 0 0.9 2.6 0.04 0.21 0.21 91 1014.6
20260505060513 53 202 0.9 2.6 0.04 0.21 0.21 91 1014.3
20260505060035 53 188 0.9 1.7 0.03 0.20 0.20 91 1014.3
20260505055513 53 175 0.9 1.7 0.03 0.19 0.19 91 1014.6
20260505055012 53 103 0.0 0.9 0.02 0.18 0.18 91 1014.7
20260505054530 53 0 0.0 0.9 0.01 0.17 0.17 90 1014.7
20260505054019 53 0 0.0 0.9 0.01 0.17 0.17 90 1014.7
20260505053510 53 0 0.0 0.9 0.02 0.17 0.17 90 1014.7
20260505053040 53 0 0.0 0.9 0.02 0.17 0.17 90 1014.7
20260505052512 53 0 0.0 0.9 0.03 0.17 0.17 90 1014.7
20260505052013 54 0 0.0 0.9 0.03 0.17 0.17 90 1014.6
20260505051530 54 0 0.0 0.9 0.03 0.17 0.17 90 1014.6
20260505051013 54 0 0.0 0.0 0.03 0.17 0.17 90 1014.7
20260505050513 54 0 0.0 2.6 0.04 0.17 0.17 90 1014.7
20260505041539 55 64 0.9 2.6 0.09 0.14 0.14 89 1014.9
20260505041013 55 76 0.9 2.6 0.09 0.13 0.13 89 1014.9
20260505040513 55 76 1.7 3.5 0.09 0.13 0.13 89 1014.9
20260505040029 55 75 1.7 3.5 0.08 0.12 0.12 89 1014.8
20260505035512 55 69 0.9 3.5 0.08 0.12 0.12 89 1014.9
20260505035013 55 49 0.0 0.9 0.07 0.11 0.11 89 1014.9
20260505034532 55 0 0.0 0.9 0.07 0.11 0.11 89 1014.8
20260505034012 55 0 0.0 0.9 0.06 0.10 0.10 89 1014.7
20260505033516 55 0 0.0 0.9 0.05 0.09 0.09 88 1014.6
20260505033028 55 0 0.0 0.9 0.03 0.07 0.07 88 1014.6
20260505032513 55 0 0.0 1.7 0.02 0.06 0.06 88 1014.6
20260505032012 55 0 0.0 1.7 0.01 0.05 0.05 88 1014.7
20260505031528 55 61 0.9 2.6 0.01 0.05 0.05 87 1014.8
20260505031017 55 71 0.9 2.6 0.00 0.04 0.04 87 1014.7
20260505030514 55 83 0.9 2.6 0.00 0.04 0.04 87 1014.6
20260505030028 55 78 0.9 1.7 0.00 0.04 0.04 87 1014.5
20260505025513 55 0 0.0 1.7 0.00 0.04 0.04 87 1014.4
20260505025014 55 0 0.0 1.7 0.00 0.04 0.04 87 1014.3
20260505024528 55 0 0.0 3.5 0.00 0.04 0.04 87 1014.1
20260505024016 56 0 0.0 4.3 0.00 0.04 0.04 87 1014.1
20260505023511 56 278 1.7 4.3 0.00 0.04 0.04 87 1014.1
20260505023029 56 265 0.0 3.5 0.00 0.04 0.04 87 1014.0
20260505022515 56 0 0.9 3.5 0.00 0.04 0.04 87 1014.1
20260505022013 56 74 1.7 3.5 0.00 0.04 0.04 87 1014.1
20260505021531 56 84 1.7 3.5 0.00 0.04 0.04 87 1014.2
20260505021014 56 0 0.0 3.5 0.01 0.04 0.04 87 1014.3
20260505020514 56 171 0.0 3.5 0.01 0.04 0.04 87 1014.2
20260505020028 56 169 0.0 1.7 0.01 0.04 0.04 88 1014.2
20260505015515 56 0 0.0 3.5 0.01 0.04 0.04 87 1014.1
20260505015018 56 0 0.9 3.5 0.01 0.04 0.04 87 1014.0
20260505014528 56 74 0.0 2.6 0.01 0.04 0.04 87 1014.0
20260505014013 56 84 0.9 3.5 0.01 0.04 0.04 87 1014.0
20260505013511 56 0 0.9 3.5 0.02 0.04 0.04 87 1014.0
20260505013030 56 101 1.7 3.5 0.02 0.04 0.04 87 1014.1
20260505012515 56 82 0.9 5.2 0.02 0.04 0.04 87 1014.0
20260505012015 56 116 0.9 5.2 0.02 0.04 0.04 87 1014.1
20260505011547 57 103 0.9 6.1 0.02 0.04 0.04 87 1014.0
20260505011015 57 96 1.7 7.0 0.01 0.03 0.03 86 1014.1
20260505010517 57 82 1.7 7.0 0.01 0.03 0.03 86 1014.3
20260505010029 57 71 2.6 6.1 0.01 0.03 0.03 86 1014.4
20260505005518 57 82 1.7 5.2 0.01 0.03 0.03 86 1014.4
20260505005011 57 80 1.7 6.1 0.01 0.03 0.03 85 1014.5
20260505004528 57 80 1.7 6.1 0.01 0.03 0.03 84 1014.5
20260505004010 57 92 2.6 7.0 0.01 0.03 0.03 84 1014.5
20260505003510 57 72 3.5 7.0 0.00 0.02 0.02 84 1014.5
20260505003028 57 68 3.5 7.0 0.00 0.02 0.02 84 1014.6
20260505002511 57 69 3.5 7.0 0.00 0.02 0.02 84 1014.5
20260505002018 57 81 3.5 6.1 0.00 0.02 0.02 85 1014.6
20260505001528 57 57 3.5 7.8 0.00 0.02 0.02 85 1014.5
20260505001015 57 63 3.5 7.8 0.00 0.02 0.02 85 1014.5
20260505000514 58 80 4.3 7.8 0.00 0.02 0.02 84 1014.6
20260505000037 58 89 3.5 7.8 0.00 0.02 0.02 86 1014.5
20260504235509 58 88 2.6 6.1 0.00 0.02 0.02 86 1014.4
20260504235011 58 81 1.7 5.2 0.00 0.02 0.02 87 1014.5
20260504234530 58 65 2.6 6.1 0.00 0.02 0.02 87 1014.4
20260504234009 58 84 2.6 6.1 0.00 0.02 0.02 86 1014.5
20260504233513 58 71 2.6 6.1 0.00 0.02 0.02 86 1014.5
20260504233028 58 82 2.6 6.1 0.00 0.02 0.02 85 1014.6
20260504232513 58 97 1.7 7.0 0.00 0.02 0.02 83 1014.5
20260504232012 58 80 3.5 7.0 0.00 0.02 0.02 84 1014.5
20260504231528 59 57 2.6 6.1 0.00 0.02 0.02 85 1014.5
20260504231012 59 76 2.6 6.1 0.00 0.02 0.02 84 1014.6
20260504230512 59 66 1.7 6.1 0.00 0.02 0.02 84 1014.6
20260504230030 59 74 1.7 6.1 0.00 0.02 0.02 83 1014.6
20260504225513 58 93 2.6 6.1 0.00 0.02 0.02 83 1014.6
20260504225010 59 71 1.7 6.1 0.00 0.02 0.02 84 1014.6
20260504224533 59 98 1.7 6.1 0.00 0.02 0.02 84 1014.7
20260504224013 59 87 1.7 8.7 0.00 0.02 0.02 84 1014.9
20260504223516 59 101 3.5 8.7 0.00 0.02 0.02 84 1014.9
20260504223027 59 74 4.3 8.7 0.00 0.02 0.02 84 1014.9
20260504222513 59 84 2.6 6.1 0.00 0.02 0.02 83 1015.0
20260504222012 60 0 0.9 5.2 0.00 0.02 0.02 82 1014.9
20260504221530 60 0 0.0 5.2 0.00 0.02 0.02 80 1014.9
20260504221017 60 103 2.6 5.2 0.00 0.02 0.02 79 1014.9
20260504220514 60 70 0.0 2.6 0.00 0.02 0.02 79 1014.9
20260504220028 59 0 0.0 5.2 0.00 0.02 0.02 80 1014.9
20260504215510 59 0 0.0 5.2 0.00 0.02 0.02 80 1014.9
20260504215012 59 88 1.7 3.5 0.00 0.02 0.02 79 1015.0
20260504214530 59 0 0.0 3.5 0.00 0.02 0.02 79 1015.1
20260504214015 59 0 0.0 3.5 0.00 0.02 0.02 78 1015.1
20260504213514 59 0 0.0 2.6 0.00 0.02 0.02 78 1015.1
20260504213034 59 82 0.9 2.6 0.00 0.02 0.02 78 1015.1
20260504212514 59 96 0.0 2.6 0.00 0.02 0.02 79 1015.2
20260504212014 59 93 0.0 1.7 0.00 0.02 0.02 79 1015.1
20260504211528 59 0 0.0 1.7 0.00 0.02 0.02 78 1015.2
20260504211014 59 0 0.0 1.7 0.00 0.02 0.02 79 1015.2
20260504210515 59 0 0.0 6.1 0.00 0.02 0.02 80 1015.1
20260504210028 59 0 0.9 6.1 0.00 0.02 0.02 80 1015.1
20260504205514 59 246 1.7 4.3 0.00 0.02 0.02 79 1015.1
20260504205012 59 161 2.6 5.2 0.00 0.02 0.02 79 1015.1
20260504204528 59 168 1.7 5.2 0.00 0.02 0.02 83 1015.0
20260504204014 59 215 1.7 5.2 0.00 0.02 0.02 82 1015.0
20260504203513 59 0 2.6 5.2 0.00 0.02 0.02 83 1015.1
20260504203028 59 0 0.9 5.2 0.00 0.02 0.02 84 1015.1
20260504202513 58 0 0.9 5.2 0.00 0.02 0.02 83 1015.0
20260504202015 58 0 0.0 4.3 0.00 0.02 0.02 84 1015.1
20260504201531 58 0 0.0 4.3 0.00 0.02 0.02 84 1015.0
20260504201014 58 0 0.0 4.3 0.00 0.02 0.02 85 1015.1
20260504200515 58 171 0.0 2.6 0.00 0.02 0.02 85 1015.1
20260504200030 58 0 0.0 2.6 0.00 0.02 0.02 84 1015.2
20260504195512 58 178 0.9 3.5 0.00 0.02 0.02 83 1015.1
20260504195013 58 0 0.0 7.0 0.00 0.02 0.02 82 1015.2
20260504194531 58 179 2.6 8.7 0.00 0.02 0.02 83 1015.2
20260504194014 58 188 5.2 8.7 0.00 0.02 0.02 82 1015.2
20260504193515 59 219 4.3 6.1 0.00 0.02 0.02 81 1015.0
20260504193028 59 207 2.6 5.2 0.00 0.02 0.02 79 1015.1
20260504192514 59 230 2.6 4.3 0.00 0.02 0.02 78 1015.1
20260504192017 59 213 0.9 4.3 0.00 0.02 0.02 78 1015.1
20260504191530 59 0 0.9 4.3 0.00 0.02 0.02 77 1015.2
20260504191016 59 188 1.7 4.3 0.00 0.02 0.02 76 1015.2
20260504190514 59 198 0.9 4.3 0.00 0.02 0.02 76 1015.3
20260504190030 59 169 0.9 4.3 0.00 0.02 0.02 76 1015.2
20260504185513 59 203 0.9 4.3 0.00 0.02 0.02 78 1015.2
20260504185013 59 0 0.0 5.2 0.00 0.02 0.02 77 1015.3
20260504184531 59 252 1.7 5.2 0.00 0.02 0.02 77 1015.4
20260504184014 59 231 0.9 6.1 0.00 0.02 0.02 79 1015.3
20260504183513 59 188 3.5 6.1 0.00 0.02 0.02 78 1015.3
20260504183029 59 206 2.6 7.0 0.00 0.02 0.02 78 1015.4
20260504182513 59 192 4.3 7.8 0.00 0.02 0.02 78 1015.4
20260504182013 59 179 2.6 7.8 0.00 0.02 0.02 79 1015.4
20260504181530 59 197 4.3 7.8 0.00 0.02 0.02 79 1015.4
20260504181016 59 194 3.5 7.8 0.00 0.02 0.02 80 1015.4
20260504180513 58 207 4.3 7.8 0.00 0.02 0.02 81 1015.3
20260504180030 58 217 3.5 7.0 0.00 0.02 0.02 80 1015.3
20260504175513 58 244 4.3 7.0 0.00 0.02 0.02 80 1015.2
20260504175017 58 194 3.5 6.1 0.00 0.02 0.02 80 1015.3
20260504174527 58 174 3.5 6.1 0.00 0.02 0.02 80 1015.1
20260504174014 58 195 3.5 5.2 0.00 0.02 0.02 79 1015.1